{"data":{"norad_id":57741,"intl_designator":"2023-131K","name":"STARLINK-30364","alt_names":[],"object_type":"PAYLOAD","status":"ACTIVE","operator":null,"country":"US","launch_date":"2023-09-01","launch_site_code":"AFETR","launch_vehicle":null,"mission":null,"orbit_class":"UNKNOWN","rcs_meters":null,"size_class":null,"mass_kg":null,"dimensions":null,"purposes":["comms"],"wikipedia_slug":null,"has_3d_model":false,"image_url":null,"decayed_at":null,"tle_current":{"epoch":"2026-05-25T03:42:08.737056Z","epoch_age_seconds":64764,"freshness":"FRESH","line1":"1 57741U 23131K   26145.15426779  .00000758  00000+0  37081-4 0  9995","line2":"2 57741  43.0019 100.3731 0001260 268.7047  91.3660 15.27580743151612","mean_motion":15.27580743,"eccentricity":0.000126,"inclination_deg":43.0019,"raan_deg":100.3731,"arg_perigee_deg":268.7047,"mean_anomaly_deg":91.366,"bstar":3.7081e-5,"rev_number":15161,"period_min":94.266702863248,"perigee_km":482.18236206349,"apogee_km":483.91138039904,"semimajor_km":6861.1838712313,"source":"CELESTRAK","updated_at":"2026-05-25T13:38:18.399946Z"}}}